Weather Service Report


255 
ASUS46 KPQR 010410
RWROR 

OREGON REGIONAL WEATHER ROUNDUP
NATIONAL WEATHER SERVICE PORTLAND OR
900 PM PDT FRI JUL 31 2015

NOTE: "FAIR" INDICATES FEW OR NO CLOUDS BELOW 12,000 FEET WITH
NO SIGNIFICANT WEATHER AND/OR OBSTRUCTIONS TO VISIBILITY.

ORZ001>013-010500-
NORTHWEST OREGON

  
CITY           SKY/WX    TMP DP  RH WIND       PRES   REMARKS
ASTORIA        CLEAR     63  57  81 W5        30.02R                  
NEWPORT        CLEAR     55  54  94 N9G16     30.01R FOG              
PORTLAND       PTCLDY    86  50  28 NW9       29.92R                  
VANCOUVER WA   CLEAR     87  46  24 NW8       29.92R                  
SCAPPOOSE      CLEAR     86  45  23 N8        29.92R                  
HILLSBORO      CLEAR     84  48  28 NW13      29.93R                  
AURORA         CLEAR     86  46  24 NW6       29.93R                  
MCMINNVILLE    CLEAR     87  44  22 N7        29.93R                  
SALEM          CLEAR     88  46  23 NW7       29.91R                  
CORVALLIS      CLEAR     88  46  23 NW10      29.93S                  
EUGENE         PTCLDY    85  42  22 NW5       29.91R                  
$$

ORZ021-028-010500-
SOUTHWEST OREGON

  
CITY           SKY/WX    TMP DP  RH WIND       PRES   REMARKS
NORTH BEND     CLEAR     61  55  82 N17       29.94R                  
BROOKINGS      CLOUDY    59  59 100 VRB6      29.99F                  
ROSEBURG       CLEAR     96  42  15 N5        29.89R HX  92           
SEXTON SUMMIT  MOCLDY    82  36  19 N14G22    30.13R                  
MEDFORD        CLOUDY    95  50  21 NE6       29.90R SMOKE   HX  92   
$$

ORZ014>016-041-010500-
COLUMBIA GORGE

  
CITY           SKY/WX    TMP DP  RH WIND       PRES   REMARKS
TROUTDALE      CLEAR     88  53  30 NW3       29.90R                  
THE DALLES     CLEAR     92  40  16 NW12      29.84R                  
$$

ORZ029>031-041-044-049-050-061>064-502-503-505>511-010500-
EASTERN OREGON

  
CITY           SKY/WX    TMP DP  RH WIND       PRES   REMARKS
REDMOND        CLEAR     87  39  18 N9        30.05R                  
BEND           CLEAR     82  41  23 CALM      30.07S                  
PRINEVILLE     CLEAR     84  37  18 NW13G18   30.05S                  
KLAMATH FALLS  MOCLDY    73  47  39 NW5       30.14R                  
LAKEVIEW       MOCLDY    70  41  35 N7        30.15S                  
HERMISTON      CLEAR     86  43  22 E6        29.84S                  
PENDLETON      NOT AVBL                                               
JOHN DAY       PTCLDY    83  35  18 CALM      30.09R                  
MEACHAM        CLEAR     73  42  32 CALM      30.12R                  
LA GRANDE      CLEAR     84  36  17 N6        30.02R                  
BAKER CITY     CLEAR     73  48  41 S3        30.07R                  
BURNS          MOCLDY    76  36  23 CALM      30.11R                  
ROME             N/A     83  20   9 E9        30.09R                  
ONTARIO        CLEAR     83  50  31 NW3       29.96S                  
$$

Return to Home page


Western Regional Climate Center, wrcc@dri.edu